Location: Jaksice
(50.1333°N, 20.5167°E)
Time: 06:09:50
(UTC+00:00)

Daily predictions for brighter satellites

Satellite Brightness Start Highest point End
(mag) Time Altitude Azimuth Time Altitude Azimuth Time Altitude Azimuth
Cosmos 2263 Rocket 4.2 15:20:07 10° W 15:24:02 19° NW 15:27:58 10° N
ATLAS CENTAUR R/B 1.1 15:21:10 10° SW 15:24:37 73° NW 15:28:06 10° NE
Cosmos 1975 Rocket 3.9 15:21:02 10° N 15:24:50 28° ENE 15:28:37 10° SE
Cosmos 1844 Rocket 3.5 15:21:35 10° SW 15:27:00 51° NW 15:32:28 10° NNE
Cosmos 1733 Rocket 4.2 15:23:10 10° SSW 15:27:17 44° WNW 15:31:25 10° N
MOS 1 Rocket 4.2 15:24:56 10° ESE 15:28:21 23° ENE 15:31:52 10° N
CZ-4C R/B 2.3 15:27:47 10° WSW 15:32:11 60° NW 15:37:53 10° NE
UNK 4.1 15:28:03 10° NNE 15:32:30 44° E 15:36:53 10° S
Cosmos 1867 4.1 15:27:35 10° WSW 15:32:57 57° NW 15:38:21 10° NE
Cosmos 921 Rocket 3.0 15:28:43 10° SSW 15:33:03 72° ESE 15:37:28 10° NNE
Cosmos 1763 Rocket 4.1 15:31:33 10° N 15:36:22 35° NE 15:41:05 10° ESE
Cosmos 540 Rocket 4.2 15:32:36 10° N 15:37:10 31° NE 15:41:41 10° ESE
Cosmos 1833 Rocket 2.7 15:32:41 10° NNW 15:38:22 78° ENE 15:44:01 10° SSE
ISS -1.4 15:39:52 10° SSE 15:41:26 13° SE 15:43:00 10° ESE
BREEZE-M DEB (TANK) 4.5 15:40:53 10° S 15:42:48 17° SE 15:45:57 10° E
Cosmos 1269 Rocket 4.3 15:39:04 10° S 15:44:06 49° ESE 15:49:09 10° NNE
Cosmos 1140 Rocket 3.9 15:39:14 10° S 15:44:06 43° ESE 15:48:57 10° NE
CZ-2D R/B 3.0 15:41:44 10° SE 15:44:44 43° ENE 15:47:46 10° N
Cosmos 1025 Rocket 3.9 15:42:37 10° NNW 15:46:51 53° W 15:51:01 10° S
SWARM A 4.2 15:43:40 10° N 15:47:00 88° W 15:50:19 10° S
Thor Agena Rocket 3.8 15:43:15 10° SSE 15:48:31 80° WSW 15:53:50 10° NNW
Cosmos 1606 3.9 15:47:45 10° SW 15:50:09 28° WNW 15:52:33 10° N
Cosmos 1459 Rocket 4.4 15:44:34 10° SSW 15:50:49 69° WNW 15:57:12 10° N
SAR-Lupe-1 4.0 15:48:22 10° SSE 15:51:53 61° ENE 15:55:26 10° N
Meteor 1-28 Rocket 3.4 15:50:58 10° N 15:54:19 63° WNW 15:57:39 10° SSW
IGS 5A 3.9 15:50:37 10° S 15:54:34 64° WSW 15:58:34 10° NNW
RESURS DK-1 2.9 15:51:12 10° NNW 15:54:55 35° NE 15:58:36 10° ESE
BREEZE M DEB (TANK) 4.4 15:38:43 10° WSW 16:01:10 84° S 16:05:35 15° E
IRS-P3 4.1 15:57:38 10° SSE 16:02:53 64° ENE 16:08:10 10° N
SAR-Lupe-4 3.6 16:00:46 10° SSE 16:04:21 82° WSW 16:07:57 10° NNW
YAOGAN 1 3.3 16:05:25 10° SE 16:09:04 29° ENE 16:12:46 10° N
PSLV R/B 4.3 16:07:08 10° ESE 16:10:35 28° ENE 16:14:02 10° N
SJ-12 3.7 16:09:18 10° SSE 16:13:06 85° WSW 16:16:56 10° NNW
Cosmos 2061 Rocket 4.0 16:07:02 10° S 16:13:20 80° E 16:19:36 10° NNE
ATLAS 2AS CENTAUR R/B 3.7 16:07:45 10° NW 16:13:35 29° NNE 16:17:37 17° ENE
Resurs 1-3 4.3 16:12:00 10° SE 16:15:47 31° ENE 16:19:36 10° N
TIMED 4.5 16:13:14 10° S 16:17:25 60° ESE 16:21:14 12° NNE
CZ-2D R/B 3.7 16:13:42 10° SE 16:17:37 44° ENE 16:21:38 10° N
ARIANE 5 R/B 2.7 16:13:32 10° S 16:18:29 73° WSW 16:23:31 10° NNW
ARIANE 6 FM1 Upper Stage 4.5 16:16:21 10° WNW 16:19:27 21° NNW 16:22:10 12° NNE
Meteor 2-12 Rocket 4.4 16:13:33 10° N 16:19:41 70° ENE 16:25:43 10° SSE
Cosmos 2233 Rocket 4.1 16:14:54 10° S 16:21:13 83° W 16:27:35 10° N
SAR-Lupe-3 3.6 16:19:08 14° NNE 16:21:20 85° E 16:23:59 10° SSW
SJ 16-02 3.2 16:20:03 10° SE 16:21:10 14° ESE 16:21:10 14° ESE
Cosmos 1023 Rocket 4.4 16:18:09 10° SSW 16:23:20 88° WNW 16:28:29 10° NNE
Cosmos 2058 3.2 16:20:41 10° N 16:24:25 38° ENE 16:28:08 10° SE
Resurs 01 Rocket 3.1 16:26:28 19° NE 16:26:28 19° NE 16:28:46 10° NNE
Cosmos 468 Rocket 4.2 16:20:56 10° NNW 16:26:00 47° ENE 16:30:58 10° SE
Cosmos 1536 Rocket 4.2 16:22:32 10° N 16:26:34 33° ENE 16:30:34 10° SE
Cosmos 44 Rocket 4.2 16:23:00 10° S 16:27:06 29° ESE 16:28:34 25° E
SL-19 R/B 4.3 16:22:09 10° SE 16:27:08 48° ENE 16:32:08 10° N
IRAS Rocket 4.3 16:23:21 10° SE 16:28:47 57° ENE 16:34:13 10° N
SMAP 4.2 16:24:51 10° S 16:29:20 47° W 16:33:52 10° NNW
Aureole 3 Rocket 2.7 16:26:53 10° SSE 16:29:43 37° E 16:29:48 37° E
Cosmos 1464 Rocket 4.3 16:28:22 10° SSE 16:34:12 42° E 16:40:01 10° NNE
USA 215 4.4 16:28:39 10° SSE 16:34:46 42° SW 16:40:57 10° WNW
Cosmos 1812 2.9 16:37:17 10° S 16:39:11 32° SE 16:39:11 32° SE
Cosmos 2082 Rocket 2.2 16:34:55 10° NNW 16:40:29 59° NE 16:45:21 13° SE
Cosmos 1869 2.8 16:38:47 10° S 16:42:19 87° E 16:45:12 15° N
SPOT 1/Viking Rocket 3.4 16:38:08 10° SSE 16:43:18 80° ENE 16:48:31 10° NNW
Cosmos 2278 Rocket 2.2 16:40:12 10° S 16:45:43 57° ESE 16:49:09 23° NE
Cosmos 2034 Rocket 4.5 16:40:32 10° SSE 16:46:02 35° E 16:51:36 10° NNE
Cosmos 1943 Rocket 2.2 16:41:10 10° SSW 16:46:41 60° ESE 16:50:08 23° NE
Cosmos 407 Rocket 3.3 16:42:38 10° SSW 16:47:48 75° ESE 16:51:44 18° NNE
Cosmos 2084 Rocket 4.0 16:44:30 10° WSW 16:48:36 51° NW 16:50:44 26° NNE
SJ-7 4.0 16:44:58 10° SSE 16:48:38 71° ENE 16:52:19 10° N
CARTOSAT-1 4.3 16:50:45 32° NE 16:50:45 32° NE 16:53:40 10° N
Timation 1 Rocket 4.4 16:44:22 10° NNW 16:50:22 81° WSW 16:56:19 10° SSE
Cosmos 2344 4.0 16:43:16 10° NW 16:50:41 53° NE 16:56:03 26° E
NOAA 15 4.5 16:50:00 10° SSE 16:55:18 83° ENE 17:00:38 10° NNW
ATLAS 5 CENTAUR R/B 3.6 16:52:22 10° WNW 16:56:21 32° WSW 17:01:07 10° S
ATLAS CENTAUR R/B 3.3 16:58:08 10° WNW 17:00:17 15° NNW 17:01:34 13° N
Cosmos 1092 Rocket 4.4 16:55:52 10° N 17:01:42 39° ENE 17:02:33 37° E
SL-16 R/B 4.3 16:57:31 10° N 17:02:44 29° NW 17:07:57 10° WSW
BREEZE-M DEB (TANK) 3.0 17:00:20 10° WSW 17:02:58 79° SSE 17:04:23 44° ENE
Spot 4 Rocket 4.0 16:57:55 10° SSE 17:03:01 82° WSW 17:08:09 10° NNW
Cosmos 2151 Rocket 3.5 17:00:15 10° S 17:04:39 62° E 17:05:45 46° NE
MOS 1 Rocket 4.2 17:01:59 10° S 17:06:07 46° W 17:10:26 10° NNW
Cosmos 1072 Rocket 4.3 17:00:09 10° S 17:06:17 75° E 17:12:24 10° NNE
COSMOS 2406 3.3 17:01:38 10° NNW 17:07:14 54° NE 17:08:32 44° E
Cosmos 2026 Rocket 4.0 17:05:29 10° N 17:11:22 49° ENE 17:12:56 40° ESE
USA 281 3.4 17:09:15 37° E 17:11:23 50° NE 17:17:42 10° NNW
COSMO-SKYMED 1 2.3 17:10:36 52° NNE 17:11:36 83° ESE 17:15:43 10° SSW
SKYMED 2 3.7 17:08:26 12° N 17:12:27 72° WNW 17:16:46 10° SSW
BREEZE-M DEB (TANK) 2.7 17:13:32 10° WSW 17:16:24 73° SSE 17:17:13 57° ESE
ISS -2.4 17:14:21 10° SW 17:16:32 35° SSW 17:16:32 35° SSW
Cosmos 540 Rocket 4.4 17:13:56 10° NNW 17:18:52 47° WSW 17:23:44 10° S
Meteor 2-3 Rocket 3.7 17:14:17 10° N 17:19:58 58° ENE 17:20:43 54° ESE
CZ-4C R/B 3.8 17:17:23 10° WNW 17:21:40 26° NNW 17:24:06 20° NNE
Helios 1A Rocket 3.9 17:28:22 34° SW 17:28:22 34° SW 17:30:28 10° SSW
NOAA 6 4.1 17:23:40 10° S 17:28:49 75° WSW 17:33:59 10° NNW
RESURS DK-1 4.2 17:28:46 10° NW 17:32:16 29° WSW 17:35:25 12° SSW
Nadezhda 4 Rocket 4.2 17:26:27 10° NNW 17:32:45 73° W 17:38:56 10° S
SL-12 R/B(2) 4.4 17:24:39 10° SW 17:32:48 83° NW 17:39:16 25° NE
Cosmos 2297 Rocket 4.5 17:36:05 10° N 17:36:47 11° NNE 17:36:47 11° NNE
Cosmos 1627 Rocket 4.3 17:31:18 10° N 17:37:27 71° ENE 17:38:24 61° SE
Cosmos 2251 Rocket 3.6 17:33:19 10° SSW 17:38:37 77° WNW 17:39:54 52° N
YAOGAN 1 4.1 17:40:57 10° SSW 17:44:50 35° W 17:48:46 10° NNW
Cosmos 2195 Rocket 4.5 17:40:16 10° N 17:46:37 84° W 17:52:57 10° S
Cosmos 841 Rocket 3.7 17:50:37 10° NNW 17:55:39 69° W 17:55:39 69° W
SJ 16-02 3.2 17:56:03 10° SSW 17:57:46 23° SW 17:57:46 23° SW
Resurs 01 Rocket 3.4 18:03:53 26° NNW 18:03:53 26° NNW 18:05:56 10° NNW
ATLAS 2AS CENTAUR R/B 2.9 17:59:06 10° NW 18:05:02 56° N 18:05:02 56° N
Cosmos 44 Rocket 4.3 18:03:33 10° WSW 18:07:12 44° W 18:07:12 44° W
Cosmos 2082 Rocket 4.0 18:19:32 10° NW 18:24:10 27° WSW 18:27:17 17° SSW
Cosmos 2278 Rocket 3.6 18:25:04 10° WSW 18:30:06 32° NW 18:31:01 31° NNW
Cosmos 1943 Rocket 3.7 18:25:51 10° WSW 18:30:47 30° NW 18:31:40 29° NNW
USA 281 4.1 18:56:07 42° WSW 18:56:07 42° WSW 19:02:12 10° NW
Cosmos 2344 4.4 18:57:30 10° NW 19:05:22 56° WSW 19:06:06 55° SW
CZ-4C R/B 4.5 19:06:56 10° NW 19:09:03 19° NNW 19:09:03 19° NNW
